Regional Weather Roundup
Issued by NWS State College, PA

Home | Current Version | Previous Version | Graphics & Text | Print | Product List | Glossary Off
Versions: 1 2 3 4 5 6 7 8 9 10 11 12 13 14 15 16 17 18 19 20 21 22 23 24 25 26 27 28 29 30 31 32 33 34 35 36 37 38 39 40 41 42 43 44 45 46 47 48 49 50

000
ASUS41 KCTP 020003
RWRCTP

REGIONAL WEATHER ROUNDUP
NATIONAL WEATHER SERVICE STATE COLLEGE PA
800 PM EDT WED OCT 01 2014

Note: "fair" indicates few or no clouds below 12,000 feet with no
significant weather and/or obstructions to visibility.

* = STATION THAT DOES NOT REPORT PRECIPITATION /E.G. RAIN...SNOW...ETC/
    THUNDER OR FOG.

PAZ002>004-007>009-013>016-020>023-029>032-020100-
WESTERN PENNSYLVANIA

CITY           SKY/WX    TMP DP  RH WIND       PRES   REMARKS
ERIE           CLEAR     64  59  83 E9        30.03S
MEADVILLE      CLEAR     62  56  80 CALM      30.04S
FRANKLIN*      CLEAR     61  54  77 CALM      30.05S
NEW CASTLE       N/A     57  56  97 CALM      30.04S
BEAVER COUNTY  CLEAR     61  55  82 CALM      30.03S
BUTLER*        CLEAR     57  54  88 SW3       30.05S
PITTSBURGH INT PTCLDY    61  56  83 CALM      30.02S
PITTSBURGH     CLEAR     63  54  72 N3        30.02S
INDIANA*       CLOUDY    64  55  72 CALM      30.08R
LATROBE        CLEAR     63  61  94 CALM      30.04S
WASHINGTON CO* CLEAR     54  52  94 CALM      30.04S
$$

PAZ004>006-010>012-017>019-024>028-033>037-041-042-045-046-049>053-020100-
CENTRAL PENNSYLVANIA

CITY           SKY/WX    TMP DP  RH WIND       PRES   REMARKS
BRADFORD       CLEAR     57  52  83 CALM      30.08R
DUBOIS         CLEAR     61  55  81 E6        30.05R
CLEARFIELD     CLEAR     61  56  83 CALM      30.06S
JOHNSTOWN      CLEAR     58  54  86 E3        30.06S
ALTOONA        CLEAR     60  57  89 E5        30.06S
STATE COLLEGE  CLEAR     61  57  88 W5        30.06S
WILLIAMSPORT   CLOUDY    64  60  87 E3        30.04R
SELINSGROVE    CLOUDY    63  59  87 CALM      30.05R
FT INDIANTOWN  MOCLDY    65  64  96 E8        30.06R
CAPITAL CITY   CLEAR     63  59  87 SW5       30.04R
HARRISBURG     PTCLDY    62  59  90 NW3       30.04R
YORK           CLEAR     57  56  96 CALM      30.04S
$$

PAZ038>040-043-044-047-048-054-055-060>062-067>071-020100-
EASTERN PENNSYLVANIA

CITY           SKY/WX    TMP DP  RH WIND       PRES   REMARKS
SCRANTON       MOCLDY    63  54  72 NE6       30.07R
MOUNT POCONO   CLOUDY    58  54  86 E5        30.09S
ALLENTOWN      MOCLDY    62  55  77 NE5       30.06R
QUAKERTOWN*    CLEAR     63  55  77 CALM      30.07R
READING        CLOUDY    68  55  63 E5        30.04R
LANCASTER      CLOUDY    65  58  78 NW5       30.04R
COATESVILLE    CLOUDY    66  57  72 E6        30.06R
POTTSTOWN      MOCLDY    63  56  78 NE5       30.07R
BLUE BELL      MOCLDY    64  57  77 NE5       30.05R
DOYLESTOWN     CLOUDY    64  57  78 NE3       30.06R
WILLOW GROVE   NOT AVBL
NORTH PHILA    CLOUDY    67  56  67 NE8       30.07R
PHILADELPHIA   PTCLDY    67  57  70 E9G17     30.05R
$$


USA.gov is the U.S. government's official web portal to all federal, state and local government web resources and services.